Weather History for Clarksville, TN

Change the Weather History Date:

Tuesday, May 21, 2013

  Actual Average Record
Temperature  
Mean Temperature 70 °F -  
Max Temperature 79 °F - 94 °F (1951)
Min Temperature 64 °F - 38 °F (1954)
Degree Days  
Heating Degree Days 0    
Month to date heating degree days  
Since 1 July heating degree days  
Cooling Degree Days 6    
Month to date cooling degree days  
Growing Degree Days 20 (Base 50)    
Moisture  
Dew Point 65 °F    
Average Humidity 86    
Maximum Humidity 100    
Minimum Humidity 64    
Precipitation  
Precipitation 0.71 in - 1.11 in (1955)
Month to date precipitation  
Sea Level Pressure  
Sea Level Pressure 29.92 in    
Wind  
Wind Speed 7 mph (SSW)    
Max Wind Speed 23 mph    
Max Gust Speed 32 mph    
Visibility 8 miles    
Events Rain , Thunderstorm    
T = Trace of Precipitation, MM = Missing Value Source: NWS Daily Summary

Daily Weather History Graph

Daily Weather History Graph

Search for Another Location

Airport:

Trip Planner

Search our weather history database for the weather conditions in past years. The results will help you decide how hot, cold, wet, or windy it might be!

Date:

Astronomy

May. 21, 2013 Rise Set
Actual Time 5:37 AM CDT 7:55 PM CDT
Civil Twilight 5:08 AM CDT 8:24 PM CDT
Nautical Twilight 4:32 AM CDT 9:00 PM CDT
Astronomical Twilight 3:53 AM CDT 9:39 PM CDT
Moon 4:13 PM CDT (5/21) 2:59 AM CDT (5/21)
Length of Visible Light 15h 15m
Length of Day
14h 17m
Waxing Gibbous, 84% of the Moon is Illuminated
May 21
Waxing Gibbous
May 24
Full
May 31
Last Quarter
Jun 8
New
Jun 16
First Quarter

Hourly Weather History & Observations

Time (CDT) Temp. Dew Point Humidity Pressure Visibility Wind Dir Wind Speed Gust Speed Precip Events Conditions
12:52 AM 73.0 °F 66.9 °F 81% 29.93 in 10.0 mi South 3.5 mph - N/A   Clear
1:52 AM 73.0 °F 66.9 °F 81% 29.92 in 10.0 mi South 5.8 mph - N/A   Clear
2:52 AM 72.0 °F 66.9 °F 84% 29.90 in 10.0 mi South 5.8 mph - N/A   Clear
3:52 AM 72.0 °F 66.9 °F 84% 29.90 in 10.0 mi South 6.9 mph - N/A   Clear
4:52 AM 73.9 °F 68.0 °F 82% 29.97 in 8.0 mi West 23.0 mph 32.2 mph N/A   Mostly Cloudy
5:25 AM 68.0 °F 64.4 °F 88% 29.99 in 10.0 mi SW 6.9 mph - 0.04 in Thunderstorm Overcast
5:40 AM 66.2 °F 64.4 °F 94% 30.00 in 10.0 mi SW 6.9 mph - 0.04 in Rain Light Rain
5:52 AM 66.9 °F 63.0 °F 87% 29.97 in 10.0 mi Calm Calm - 0.04 in   Mostly Cloudy
6:52 AM 66.0 °F 64.0 °F 93% 29.96 in 10.0 mi SE 4.6 mph - N/A   Partly Cloudy
7:52 AM 66.9 °F 64.9 °F 93% 29.94 in 10.0 mi SSE 4.6 mph - N/A   Partly Cloudy
8:52 AM 70.0 °F 66.0 °F 87% 29.97 in 10.0 mi SSW 5.8 mph - N/A   Mostly Cloudy
9:52 AM 75.9 °F 64.9 °F 69% 29.93 in 10.0 mi SSW 11.5 mph - N/A   Clear
10:52 AM 77.0 °F 64.0 °F 64% 29.93 in 10.0 mi SSW 13.8 mph - N/A   Mostly Cloudy
11:06 AM 77.0 °F 64.4 °F 65% 29.98 in 10.0 mi WSW 16.1 mph 23.0 mph N/A Thunderstorm Mostly Cloudy
11:21 AM 75.2 °F 64.4 °F 69% 29.98 in 6.0 mi WSW 9.2 mph 19.6 mph 0.01 in Rain , Thunderstorm Light Rain
11:49 AM 73.4 °F 66.2 °F 78% 29.97 in 10.0 mi SW 8.1 mph - 0.01 in   Overcast
11:52 AM 73.9 °F 66.0 °F 76% 29.96 in 10.0 mi SW 9.2 mph - 0.01 in   Overcast
12:52 PM 66.9 °F 63.0 °F 87% 29.96 in 10.0 mi SW 8.1 mph - 0.04 in Rain Light Rain
1:52 PM 66.9 °F 64.0 °F 90% 29.91 in 10.0 mi West 8.1 mph 19.6 mph 0.02 in   Clear
2:52 PM 70.0 °F 64.9 °F 84% 29.87 in 10.0 mi SSW 5.8 mph - N/A   Clear
3:52 PM 75.0 °F 64.9 °F 71% 29.84 in 10.0 mi SSW 6.9 mph - N/A   Clear
4:52 PM 75.9 °F 64.9 °F 69% 29.83 in 10.0 mi South 8.1 mph - N/A   Clear
5:52 PM 75.9 °F 68.0 °F 76% 29.83 in 10.0 mi ESE 6.9 mph - N/A   Clear
6:52 PM 73.9 °F 68.0 °F 82% 29.84 in 10.0 mi Calm Calm - N/A   Clear
7:52 PM 75.9 °F 68.0 °F 76% 29.86 in 10.0 mi Calm Calm - N/A   Mostly Cloudy
8:01 PM 73.4 °F 68.0 °F 83% 29.90 in 10.0 mi WNW 15.0 mph 26.5 mph N/A Thunderstorm Thunderstorm
8:16 PM 68.0 °F 62.6 °F 83% 29.90 in 4.0 mi WNW 11.5 mph - 0.00 in Rain , Thunderstorm Light Thunderstorms and Rain
8:30 PM 66.2 °F 64.4 °F 94% 29.91 in 1.8 mi WNW 6.9 mph - 0.06 in Rain , Thunderstorm Heavy Thunderstorms and Rain
8:50 PM 66.2 °F 64.4 °F 94% 29.91 in 2.5 mi East 4.6 mph - 0.22 in Rain , Thunderstorm Heavy Thunderstorms and Rain
8:52 PM 66.0 °F 64.0 °F 93% 29.91 in 2.5 mi ESE 5.8 mph - 0.23 in Rain , Thunderstorm Light Rain
8:59 PM 66.2 °F 64.4 °F 94% 29.93 in 3.0 mi Calm Calm - 0.03 in Rain , Thunderstorm Rain
9:06 PM 66.2 °F 64.4 °F 94% 29.92 in 1.8 mi Calm Calm - 0.06 in Rain , Thunderstorm Light Rain
9:14 PM 66.2 °F 64.4 °F 94% 29.89 in 2.0 mi North 4.6 mph - 0.09 in Rain , Thunderstorm Light Rain
9:22 PM 66.2 °F 64.4 °F 94% 29.90 in 7.0 mi Calm Calm - 0.11 in Rain , Thunderstorm Light Rain
9:40 PM 66.2 °F 64.4 °F 94% 29.95 in 1.8 mi South 8.1 mph - 0.17 in Rain , Thunderstorm Heavy Rain
9:49 PM 66.2 °F 64.4 °F 94% 29.95 in 2.0 mi SSW 5.8 mph - 0.21 in Rain Rain
9:52 PM 66.0 °F 64.0 °F 93% 29.93 in 2.5 mi SSW 5.8 mph - 0.22 in Rain Rain
9:57 PM 66.2 °F 64.4 °F 94% 29.95 in 3.0 mi SSW 5.8 mph - 0.02 in Rain , Thunderstorm Rain
10:16 PM 66.2 °F 64.4 °F 94% 29.95 in 5.0 mi South 5.8 mph - 0.07 in Rain , Thunderstorm Thunderstorms and Rain
10:38 PM 64.4 °F 64.4 °F 100% 29.92 in 6.0 mi SE 5.8 mph - 0.12 in Rain Light Rain
10:52 PM 64.9 °F 64.0 °F 97% 29.90 in 10.0 mi SE 5.8 mph - 0.14 in Rain Light Rain
11:08 PM 64.4 °F 64.4 °F 100% 29.89 in 10.0 mi SE 8.1 mph - 0.01 in Rain Light Rain
11:17 PM 64.4 °F 64.4 °F 100% 29.88 in 10.0 mi SE 9.2 mph - 0.01 in Rain Light Rain
11:52 PM 64.9 °F 64.0 °F 97% 29.86 in 10.0 mi SE 5.8 mph - 0.01 in   Scattered Clouds